Zurück zum Katalog

TJS-9

AktivMilitärGEO
NORAD 50574·PAYLOAD·🇨🇳 China

Gestartet Dec 29, 2021 von Xichang Satellite Launch Center

Loading…

TLE

AktuellSource: Space-Track

Epoche: Sep 14, 2026, 12:44 UTC

1 50574U 21135A   26257.53102205 -.00000307  00000-0  00000-0 0  9994
2 50574   0.0079 168.4253 0004879 174.8985 338.5706  1.00270145 17323

Verfolge TJS-9 in Echtzeit mit AllMySat

Download on the App Store